Flag for Japan Weather past 2 weeks in Sendai, Japan

Now
64 °F

Passing clouds.


Feels Like: 64 °F
Forecast: 53 / 76 °F
Wind: 7 mph from Southeast

Location: Sendai Airport

Current Time: May 26, 2015 at 5:38:21 PM

Latest Report: May 26, 2015 at 5:00 PM


Visibility: N/A

Pressure: 29.71 "Hg

Humidity: 78%

Dew point: 57 °F

Location of SendaiLocation

Historic Weather in Sendai — Graph

°F

Sendai temperature yesterday

Maximum temperature yesterday: 70 °F (at 8:00 AM)
Minimum temperature yesterday: 59 °F (at 8:00 PM)
Average temperature yesterday: 64 °F

Past Weeks' High & Low Weather Summary

 TemperatureHumidityPressure
High84 °F (May 14, 1:00 PM)100% (May 12, 9:00 PM)30.07 "Hg (May 12, 9:00 PM)
Low54 °F (May 12, 6:00 AM)17% (May 17, 2:04 PM)29.50 "Hg (May 13, 6:00 AM)
Average67 °F59%29.75 "Hg
* Reported May 11 4:00 PM — May 26 4:00 PM, Sendai, Weather by CustomWeather, © 2015

Note: Actual official high and low records may vary slightly from our data, if they occured in-between our weather recording intervals... More about our weather records

Advertising

Sendai weather history for previous 24 hours

 ConditionsComfort  
Time TempWeatherWind HumidityBarometerVisibility
4:00 PM
Tue, May 26
66 °FPassing clouds.8 mph73%29.68 "HgN/A
3:00 PM64 °FScattered clouds.12 mph78%29.68 "HgN/A
2:00 PM70 °FPassing clouds.12 mph64%29.71 "HgN/A
1:00 PM72 °FPassing clouds.8 mph65%29.71 "HgN/A
12:00 PM72 °FPassing clouds.9 mph65%29.71 "HgN/A
11:00 AM72 °FPassing clouds.7 mph65%29.74 "HgN/A
10:00 AM68 °FScattered clouds.9 mph73%29.77 "HgN/A
9:00 AM68 °FPartly sunny.6 mph73%29.77 "HgN/A
8:00 AM64 °FBroken clouds.2 mph83%29.77 "HgN/A
7:00 AM63 °FPartly sunny.3 mph88%29.80 "Hg5 mi
6:00 AM61 °FFog.3 mph88%29.80 "Hg2 mi
9:00 PM
Mon, May 25
61 °FPassing clouds.5 mph88%29.86 "HgN/A
8:00 PM59 °FPartly cloudy.3 mph88%29.86 "HgN/A
7:00 PM61 °FPassing clouds.3 mph83%29.86 "Hg5 mi
6:00 PM61 °FBroken clouds.6 mph88%29.86 "HgN/A
5:00 PM61 °FBroken clouds.8 mph88%29.86 "HgN/A
Weather by CustomWeather, © 2015

See weather overviewHow to use our weather pages